Weather History for KMFE - September, 2013

Change the Weather History Date:

Sunday, September 29, 2013

  Actual Average Record
Temperature  
Mean Temperature 81 °F 80 °F  
Max Temperature 86 °F 90 °F 101 °F (2005)
Min Temperature 76 °F 71 °F 51 °F (1967)
Degree Days  
Heating Degree Days 0 0  
Month to date heating degree days 0 0  
Since 1 July heating degree days 0 0  
Cooling Degree Days 16 16  
Month to date cooling degree days 528 534  
Year to date cooling degree days 3915 3785  
Growing Degree Days 30 (Base 50)    
Moisture  
Dew Point 73 °F    
Average Humidity 78    
Maximum Humidity 91    
Minimum Humidity 65    
Precipitation  
Precipitation 0.00 in 0.12 in 0.92 in (1971)
Month to date precipitation 6.22 4.36  
Year to date precipitation 12.16 17.93  
Sea Level Pressure  
Sea Level Pressure 29.95 in    
Wind  
Wind Speed 6 mph (NW)    
Max Wind Speed 15 mph    
Max Gust Speed 20 mph    
Visibility 10 miles    
Events      
T = Trace of Precipitation, MM = Missing Value Source: NWS Daily Summary

Daily Weather History Graph

Daily Weather History Graph

Search for Another Location

Airport or City:

Trip Planner

Search our weather history database for the weather conditions in past years. The results will help you decide how hot, cold, wet, or windy it might be!

Date:

Astronomy

Sep. 29, 2013 Rise Set
Actual Time 7:24 AM CDT 7:21 PM CDT
Civil Twilight 7:01 AM CDT 7:44 PM CDT
Nautical Twilight 6:34 AM CDT 8:11 PM CDT
Astronomical Twilight 6:07 AM CDT 8:37 PM CDT
Moon 2:33 AM CDT (9/29) 3:54 PM CDT (9/29)
Length of Visible Light 12h 42m
Length of Day
11h 56m
Waning Crescent, 27% of the Moon is Illuminated
Sep 29
Waning Crescent
Oct 4
New
Oct 11
First Quarter
Oct 18
Full
Oct 26
Last Quarter

Hourly Weather History & Observations

Time (CDT) Temp. Heat Index Dew Point Humidity Pressure Visibility Wind Dir Wind Speed Gust Speed Precip Events Conditions
12:53 AM 79.0 °F - 75.9 °F 90% 29.94 in 10.0 mi ESE 9.2 mph - N/A   Scattered Clouds
1:53 AM 79.0 °F - 75.0 °F 88% 29.94 in 10.0 mi SE 5.8 mph - N/A   Scattered Clouds
2:53 AM 78.1 °F - 75.0 °F 90% 29.96 in 10.0 mi Calm Calm - N/A   Partly Cloudy
3:50 AM 78.8 °F - 75.2 °F 89% 29.96 in 10.0 mi Calm Calm - N/A   Mostly Cloudy
3:53 AM 78.1 °F - 75.0 °F 90% 29.95 in 10.0 mi Calm Calm - N/A   Scattered Clouds
4:04 AM 78.8 °F - 75.2 °F 89% 29.96 in 10.0 mi NNW 4.6 mph - N/A   Mostly Cloudy
4:53 AM 80.1 °F 85.4 °F 75.9 °F 87% 29.96 in 10.0 mi North 5.8 mph - N/A   Overcast
5:17 AM 78.8 °F - 73.4 °F 83% 29.95 in 10.0 mi ENE 3.5 mph - N/A   Overcast
5:53 AM 77.0 °F - 73.0 °F 88% 29.93 in 10.0 mi SE 9.2 mph - N/A   Partly Cloudy
6:53 AM 78.1 °F - 75.0 °F 90% 29.94 in 10.0 mi Calm Calm - N/A   Clear
7:53 AM 78.1 °F - 75.0 °F 90% 29.96 in 10.0 mi Calm Calm - N/A   Clear
8:53 AM 80.1 °F 85.4 °F 75.9 °F 87% 29.99 in 10.0 mi Calm Calm - N/A   Mostly Cloudy
9:45 AM 80.6 °F 86.2 °F 75.2 °F 84% 30.00 in 10.0 mi West 9.2 mph - N/A   Mostly Cloudy
9:53 AM 79.0 °F - 73.9 °F 84% 30.00 in 10.0 mi WNW 9.2 mph - N/A   Mostly Cloudy
10:30 AM 78.8 °F - 73.4 °F 83% 30.01 in 10.0 mi NW 11.5 mph - N/A   Overcast
10:53 AM 80.1 °F 83.8 °F 72.0 °F 76% 30.00 in 10.0 mi NNW 8.1 mph - N/A   Mostly Cloudy
11:06 AM 80.6 °F 85.4 °F 73.4 °F 79% 30.00 in 10.0 mi NNW 5.8 mph - N/A   Scattered Clouds
11:53 AM 84.0 °F 91.2 °F 73.9 °F 72% 29.99 in 10.0 mi North 6.9 mph - N/A   Scattered Clouds
12:29 PM 84.2 °F 90.9 °F 73.4 °F 70% 29.98 in 10.0 mi West 3.5 mph - N/A   Mostly Cloudy
12:53 PM 84.0 °F 90.2 °F 73.0 °F 69% 29.97 in 10.0 mi WNW 6.9 mph - N/A   Overcast
1:53 PM 82.0 °F 86.3 °F 71.1 °F 69% 29.94 in 10.0 mi West 10.4 mph - N/A   Overcast
2:09 PM 82.4 °F 87.2 °F 71.6 °F 70% 29.94 in 10.0 mi WNW 12.7 mph - N/A   Overcast
2:53 PM 82.9 °F 88.0 °F 72.0 °F 69% 29.91 in 10.0 mi NNW 12.7 mph - N/A   Scattered Clouds
3:53 PM 82.9 °F 87.5 °F 71.1 °F 67% 29.90 in 10.0 mi WNW 10.4 mph - N/A   Scattered Clouds
4:01 PM 82.4 °F 87.2 °F 71.6 °F 70% 29.90 in 10.0 mi NW 10.4 mph - N/A   Mostly Cloudy
4:26 PM 82.4 °F 87.2 °F 71.6 °F 70% 29.90 in 10.0 mi WNW 9.2 mph - N/A   Scattered Clouds
4:53 PM 84.0 °F 89.0 °F 71.1 °F 65% 29.89 in 10.0 mi WNW 9.2 mph - N/A   Clear
5:53 PM 82.9 °F 87.0 °F 70.0 °F 65% 29.89 in 10.0 mi WNW 10.4 mph - N/A   Clear
6:53 PM 82.0 °F 86.3 °F 71.1 °F 69% 29.91 in 10.0 mi WNW 9.2 mph - N/A   Clear
7:53 PM 79.0 °F - 71.1 °F 77% 29.91 in 10.0 mi NW 10.4 mph - N/A   Clear
8:53 PM 79.0 °F - 71.1 °F 77% 29.93 in 10.0 mi Calm Calm - N/A   Clear
9:53 PM 77.0 °F - 71.1 °F 82% 29.94 in 10.0 mi WNW 4.6 mph - N/A   Clear
10:53 PM 75.9 °F - 72.0 °F 87% 29.95 in 10.0 mi Calm Calm - N/A   Partly Cloudy
11:53 PM 75.9 °F - 72.0 °F 87% 29.94 in 10.0 mi Calm Calm - N/A   Clear